Wind_Speed
6 7 8 9 9 9 10 10 10 9 8 7 7 6 7 8 9 10 11 13 14 16 18 19 20 22 24 26 28 29 29 30 31 33 35 37 38 40 42 43 44 45 46 45
5 6 7 8 9 9 10 11 11 10 10 9 8 8 8 9 9 9 11 13 14 15 16 18 19 20 22 24 26 28 29 29 31 33 34 37 39 40 41 42 43 45 47 46
3 5 6 7 8 9 10 11 12 11 12 11 10 9 9 10 10 11 12 14 15 16 17 19 20 22 23 24 26 28 29 30 31 33 34 36 37 39 41 42 43 42 43 43
2 4 6 7 8 9 9 10 11 12 12 12 12 12 12 13 13 13 15 15 17 18 19 20 22 23 24 25 26 27 28 29 30 32 34 35 36 39 40 41 41 40 40 40
2 3 5 6 8 9 9 10 12 12 13 13 13 13 14 15 15 15 16 17 19 20 21 22 23 24 25 26 27 28 29 31 31 32 34 35 37 37 38 39 39 38 38 38
2 3 4 5 7 8 9 10 12 13 14 14 15 15 15 17 17 17 18 19 20 21 22 23 25 26 26 28 29 30 31 31 32 32 32 35 36 37 37 38 37 38 38 37
3 4 5 6 8 9 10 11 13 15 16 17 17 17 17 19 19 19 20 21 22 23 24 24 25 26 27 28 30 31 32 32 32 32 33 34 35 36 37 37 38 38 37 37
5 5 6 7 8 10 11 13 14 16 17 19 19 19 20 20 21 22 23 24 25 26 26 26 27 27 28 29 30 31 31 32 34 34 34 35 35 36 37 37 38 38 37 36
6 6 7 8 10 11 13 14 16 17 19 20 21 21 21 22 23 24 25 26 27 28 28 28 28 27 27 28 29 31 32 33 33 34 35 35 36 37 38 38 38 38 39 38
8 9 10 10 11 12 14 16 17 18 20 21 21 22 22 23 24 25 26 28 29 29 29 28 28 28 29 29 29 30 32 33 34 34 35 35 37 38 38 38 38 39 38 39
10 11 12 12 13 14 16 17 18 20 21 22 22 23 24 25 26 26 27 28 29 31 30 29 28 28 28 29 30 32 33 34 34 35 36 36 37 38 39 39 38 38 38 38
12 13 14 14 15 16 18 19 21 22 23 24 24 25 26 27 28 28 29 29 30 31 31 29 28 28 28 28 30 32 33 34 35 36 37 37 37 38 39 39 39 39 39 39
15 15 16 17 18 19 20 21 22 23 24 25 26 27 28 29 30 30 31 31 31 32 31 30 29 29 29 30 30 31 32 34 34 35 36 37 38 38 37 38 39 39 39 40
17 17 18 19 20 21 22 23 23 24 26 27 28 29 30 30 31 32 32 33 33 33 32 32 31 30 30 31 31 31 32 33 33 34 35 36 37 37 37 38 38 39 40 40
19 20 21 21 22 22 23 24 25 26 27 28 30 31 32 32 33 33 34 34 34 34 34 34 32 32 32 32 32 32 33 33 33 33 34 34 35 36 37 37 38 39 39 39
21 22 23 23 24 25 25 26 27 28 29 30 31 32 33 34 34 35 35 36 36 36 35 35 34 33 33 33 33 33 34 34 33 33 33 33 33 33 34 36 36 37 38 38
23 24 24 25 26 26 27 28 29 30 31 32 33 34 35 35 36 36 37 37 37 37 37 35 34 34 34 34 34 34 34 34 34 33 32 32 32 32 33 34 35 35 36 37
25 26 26 27 27 28 29 30 31 32 32 33 34 35 36 36 37 37 38 38 39 38 38 37 36 36 35 35 35 35 34 34 34 33 32 32 32 32 32 33 33 34 35 37
27 27 27 27 28 29 30 31 32 33 34 35 35 36 37 38 38 39 39 40 40 39 39 38 38 37 37 36 35 34 34 33 32 32 33 33 32 32 32 32 32 33 34 35
27 27 28 29 29 30 32 33 34 34 35 36 37 38 38 38 39 40 41 41 41 40 40 39 38 38 37 36 35 33 32 31 31 31 31 32 32 32 32 32 32 32 32 33
29 29 29 30 32 33 33 34 35 36 37 38 39 39 39 39 40 41 41 41 41 40 40 39 38 37 36 35 33 32 31 30 30 29 30 30 30 30 31 31 31 31 31 32
31 31 32 33 34 34 35 36 37 38 39 40 40 40 40 40 41 41 41 41 41 40 39 38 38 37 36 34 32 31 30 29 29 29 29 29 29 30 29 29 29 29 29 29
32 33 34 35 36 36 37 37 38 39 40 41 41 40 40 41 41 41 41 41 40 39 38 37 37 36 34 32 31 30 28 28 28 28 29 29 29 29 29 29 29 29 29 29
33 34 35 36 37 37 38 38 39 40 41 41 41 40 41 41 41 41 41 40 39 38 37 36 35 34 32 31 30 29 28 28 28 28 27 27 28 28 28 28 27 27 28 28
34 35 36 37 37 37 38 39 40 41 41 40 40 40 41 41 41 40 39 38 38 37 36 35 34 33 32 31 29 28 28 27 27 27 26 26 26 26 25 25 25 26 26 27
35 36 37 37 37 38 39 40 41 41 41 40 40 41 41 41 40 39 38 37 36 35 35 34 33 32 31 30 29 28 27 27 26 26 25 25 25 25 24 24 24 25 25 26
36 37 37 37 38 38 39 40 40 40 40 40 40 40 40 40 39 38 37 36 35 35 34 34 33 32 31 30 29 28 27 26 25 25 24 24 24 24 24 24 24 25 25 26
Wind_Direction
57 50 43 33 25 21 18 13 7 1 355 351 335 322 318 314 305 294 291 291 286 275 266 264 263 264 262 260 257 254 255 255 254 255 255 255 255 255 255 254 253 254 255 256
53 45 37 28 22 18 14 9 7 4 0 356 347 334 321 314 312 305 296 292 290 283 273 270 269 268 267 263 258 255 256 256 256 257 256 257 258 257 257 257 257 256 255 254
44 29 27 24 18 12 11 7 3 0 357 351 343 335 322 314 308 303 296 291 289 285 280 275 273 273 270 264 260 259 258 258 258 259 259 258 258 257 257 258 258 257 254 252
24 15 15 18 13 7 5 2 359 355 351 346 341 332 324 317 313 309 305 300 291 284 280 275 273 273 268 262 259 258 257 257 259 261 261 260 259 258 258 257 257 254 253 253
321 345 360 4 3 360 359 359 356 352 347 343 339 335 328 323 317 313 309 305 298 292 286 279 275 272 267 262 259 260 260 261 260 260 259 259 260 260 258 256 255 254 255 255
322 331 341 350 349 349 351 351 352 352 350 345 339 333 329 323 318 315 313 308 303 296 290 285 279 273 268 264 261 261 262 262 260 259 260 258 257 258 258 258 257 256 257 256
314 331 344 349 349 347 345 343 344 346 345 343 339 334 329 325 320 316 314 313 309 303 298 292 285 277 271 267 264 263 263 263 262 261 261 260 258 257 258 258 258 257 257 256
299 313 324 334 341 343 342 341 340 341 341 340 336 332 328 324 319 315 313 313 312 308 303 298 290 281 275 271 267 266 265 265 265 263 263 262 260 259 259 259 259 259 258 256
290 303 311 319 326 331 333 335 337 338 338 338 335 333 328 324 320 316 315 314 314 312 307 302 295 286 280 275 270 267 267 267 267 265 263 263 262 261 261 261 259 259 258 257
282 293 301 307 313 320 324 326 328 331 333 334 334 332 330 327 323 319 317 316 315 315 313 308 301 292 284 279 275 271 269 269 268 267 264 263 262 261 260 261 260 259 258 256
279 290 295 302 308 313 318 321 321 324 327 329 330 330 328 327 325 322 321 320 319 318 316 312 305 297 290 284 280 277 274 271 269 268 266 264 263 262 261 260 258 258 257 256
276 286 293 297 302 308 312 316 319 320 322 325 326 327 328 327 326 324 322 321 320 319 317 313 308 302 295 289 284 279 275 273 270 269 268 267 265 263 261 259 258 258 257 257
275 282 289 295 299 303 307 311 314 316 318 320 322 323 323 322 322 323 323 321 319 318 316 312 308 304 299 295 289 283 277 273 271 269 269 266 265 263 261 260 258 257 256 256
275 281 288 293 298 301 305 307 310 312 314 316 318 319 319 319 319 319 320 320 318 315 313 311 307 303 301 297 291 286 282 277 274 271 269 267 265 263 262 261 259 257 257 256
277 282 287 291 296 300 303 306 308 310 312 314 316 316 317 317 317 317 317 316 316 314 311 308 306 303 301 299 295 289 284 280 277 275 272 269 267 265 263 262 260 258 256 255
279 283 287 290 294 297 301 305 307 308 310 311 313 314 315 316 316 316 315 315 315 313 310 306 304 303 301 299 296 292 287 282 279 277 274 270 268 267 266 265 263 260 256 254
278 283 287 290 293 296 299 302 305 307 308 309 311 312 313 314 315 316 315 314 313 312 310 307 303 301 300 298 295 292 288 283 280 278 275 271 269 268 268 267 264 261 257 253
279 283 286 289 292 295 298 301 303 305 307 309 310 311 312 313 314 314 314 313 312 311 310 306 303 302 300 299 297 293 290 286 281 277 275 273 271 270 270 269 266 262 259 255
281 284 286 288 291 294 297 300 302 304 306 308 310 311 311 312 312 313 314 313 312 311 310 308 304 302 301 299 297 295 292 288 283 279 276 275 273 271 270 270 268 264 261 258
281 284 286 289 291 294 297 299 301 303 305 307 308 310 311 311 311 312 313 313 312 311 310 308 306 303 301 299 297 295 292 289 285 281 279 277 276 273 271 270 268 266 263 260
281 283 286 289 291 294 296 299 300 302 304 306 307 309 310 310 311 312 312 313 313 312 310 310 308 306 303 300 298 295 293 291 287 284 280 279 277 276 273 271 269 268 265 261
281 283 285 289 292 294 296 298 300 302 304 306 307 308 309 310 310 311 312 313 312 312 311 311 310 308 305 302 299 296 294 291 288 285 283 281 279 277 274 272 270 268 267 265
280 282 285 288 291 294 296 298 300 302 303 305 307 307 308 309 310 311 312 313 312 313 312 312 311 310 307 304 300 297 295 292 290 287 284 281 279 277 274 272 269 267 265 264
279 282 285 289 292 294 296 298 300 302 304 306 307 307 308 309 310 311 311 312 312 312 312 312 312 312 310 306 303 299 296 293 291 288 285 282 280 279 276 272 269 267 265 264
279 282 285 289 292 294 296 297 299 301 303 305 306 307 308 309 310 311 311 312 312 312 312 313 313 312 310 307 304 301 297 294 291 289 285 282 280 279 276 272 269 267 266 264
280 282 285 288 291 294 296 298 300 302 303 304 305 307 308 309 310 310 311 311 311 312 312 312 313 313 311 309 305 301 298 296 293 290 287 284 281 278 276 274 271 268 266 265
279 282 285 288 290 293 296 298 300 302 304 304 305 306 308 308 309 309 310 310 311 311 312 312 312 313 312 309 305 301 299 297 294 291 288 284 281 278 276 275 272 270 268 266
Height
5636 5636 5635 5634 5633 5631 5630 5629 5628 5627 5625 5624 5622 5622 5621 5620 5619 5618 5618 5617 5617 5617 5618 5619 5620 5621 5622 5624 5625 5627 5629 5632 5635 5638 5641 5644 5646 5649 5651 5654 5657 5659 5662 5664
5637 5637 5636 5635 5634 5632 5631 5629 5628 5626 5625 5623 5622 5620 5620 5619 5617 5617 5616 5615 5613 5613 5614 5614 5615 5615 5616 5617 5618 5620 5622 5625 5627 5629 5631 5633 5636 5638 5640 5642 5644 5647 5649 5652
5638 5637 5637 5636 5635 5633 5632 5630 5628 5626 5626 5623 5621 5619 5618 5616 5615 5614 5613 5612 5610 5609 5609 5609 5609 5609 5609 5610 5611 5613 5615 5616 5618 5620 5622 5624 5625 5627 5629 5631 5632 5635 5637 5639
5638 5638 5637 5639 5635 5633 5632 5630 5628 5626 5624 5622 5620 5618 5616 5614 5612 5610 5609 5607 5606 5604 5603 5603 5602 5602 5602 5603 5604 5605 5606 5607 5609 5610 5612 5614 5615 5616 5618 5620 5621 5623 5625 5628
5638 5637 5637 5637 5635 5633 5632 5630 5627 5625 5623 5621 5618 5615 5613 5610 5608 5606 5604 5602 5600 5598 5596 5595 5594 5594 5594 5594 5595 5596 5597 5598 5599 5600 5601 5603 5604 5606 5607 5608 5610 5612 5614 5616
5637 5636 5636 5637 5634 5632 5632 5629 5627 5624 5621 5618 5616 5613 5612 5607 5604 5602 5599 5597 5595 5592 5590 5588 5586 5585 5585 5585 5586 5587 5587 5588 5589 5589 5590 5592 5593 5594 5596 5598 5599 5601 5603 5604
5635 5635 5635 5635 5632 5631 5631 5629 5625 5622 5619 5616 5612 5610 5607 5603 5600 5597 5594 5591 5588 5585 5583 5580 5578 5577 5576 5576 5576 5577 5577 5578 5579 5579 5580 5581 5582 5583 5585 5587 5588 5590 5592 5593
5634 5634 5636 5633 5631 5630 5629 5625 5622 5619 5616 5612 5609 5605 5602 5599 5595 5592 5589 5585 5582 5578 5575 5572 5570 5568 5567 5567 5567 5567 5567 5568 5568 5569 5569 5570 5571 5572 5574 5575 5577 5579 5580 5582
5633 5635 5632 5630 5629 5627 5625 5623 5620 5617 5613 5610 5606 5602 5598 5594 5590 5587 5583 5579 5575 5571 5567 5563 5560 5558 5557 5557 5557 5557 5557 5558 5558 5558 5558 5559 5560 5561 5563 5564 5566 5567 5569 5570
5630 5630 5629 5627 5626 5624 5622 5620 5617 5614 5610 5607 5602 5598 5594 5590 5586 5582 5578 5573 5569 5564 5560 5555 5552 5549 5548 5547 5546 5546 5547 5547 5547 5547 5548 5548 5549 5550 5551 5553 5554 5556 5557 5559
5626 5626 5625 5624 5622 5621 5619 5616 5613 5610 5607 5603 5599 5594 5590 5585 5581 5576 5572 5567 5562 5557 5552 5548 5544 5541 5539 5538 5537 5536 5536 5535 5535 5535 5536 5537 5537 5538 5539 5540 5542 5543 5545 5547
5623 5622 5621 5620 5618 5617 5614 5612 5609 5606 5602 5598 5594 5590 5585 5581 5576 5571 5567 5562 5557 5551 5546 5541 5537 5534 5531 5529 5527 5526 5525 5524 5524 5524 5524 5525 5525 5526 5527 5528 5530 5531 5533 5535
5618 5617 5616 5615 5613 5611 5609 5607 5604 5601 5597 5593 5589 5585 5580 5576 5571 5566 5561 5556 5551 5545 5540 5535 5531 5527 5524 5521 5518 5516 5515 5514 5513 5512 5512 5513 5513 5514 5515 5516 5517 5518 5520 5522
5612 5611 5611 5609 5608 5606 5603 5601 5598 5595 5591 5588 5584 5579 5574 5570 5565 5560 5555 5549 5544 5539 5534 5529 5525 5521 5517 5514 5510 5508 5506 5504 5503 5502 5501 5501 5502 5502 5503 5504 5505 5506 5507 5509
5606 5606 5605 5603 5602 5600 5597 5594 5591 5588 5585 5581 5577 5572 5568 5563 5558 5553 5548 5542 5537 5531 5526 5522 5517 5513 5509 5505 5502 5499 5496 5494 5492 5491 5490 5490 5490 5490 5491 5491 5492 5494 5495 5496
5600 5599 5598 5597 5595 5593 5590 5587 5584 5581 5578 5574 5570 5565 5560 5555 5550 5545 5540 5534 5529 5524 5518 5513 5509 5505 5500 5496 5493 5489 5487 5484 5482 5481 5480 5479 5479 5479 5479 5480 5480 5481 5483 5484
5593 5592 5590 5589 5587 5585 5583 5580 5577 5573 5570 5566 5561 5557 5552 5547 5542 5537 5531 5526 5520 5515 5509 5504 5500 5495 5491 5487 5483 5480 5476 5474 5472 5471 5470 5469 5468 5468 5468 5468 5468 5469 5471 5472
5585 5584 5582 5581 5579 5577 5574 5571 5568 5565 5561 5557 5553 5548 5543 5538 5533 5528 5522 5517 5511 5505 5500 5495 5490 5485 5481 5477 5473 5469 5466 5463 5461 5460 5459 5458 5458 5457 5457 5457 5457 5457 5459 5460
5576 5575 5573 5572 5570 5568 5565 5562 5559 5556 5552 5548 5543 5539 5534 5529 5524 5518 5513 5507 5501 5496 5490 5484 5479 5475 5470 5466 5462 5458 5455 5453 5451 5450 5449 5447 5447 5446 5446 5446 5445 5446 5447 5448
5567 5566 5564 5562 5560 5558 5556 5553 5549 5546 5542 5538 5533 5529 5524 5519 5514 5508 5503 5497 5491 5485 5479 5474 5469 5464 5459 5455 5451 5447 5445 5443 5441 5439 5438 5437 5436 5435 5435 5434 5434 5434 5435 5436
5558 5557 5555 5553 5551 5549 5546 5543 5539 5536 5532 5527 5523 5518 5513 5508 5503 5498 5492 5486 5480 5474 5469 5463 5458 5453 5448 5444 5440 5437 5435 5432 5430 5428 5427 5426 5425 5425 5424 5424 5424 5424 5424 5425
5548 5547 5545 5543 5541 5538 5535 5532 5529 5525 5521 5517 5512 5507 5503 5497 5492 5486 5481 5476 5470 5464 5458 5453 5448 5442 5438 5434 5430 5427 5425 5422 5420 5419 5417 5416 5415 5414 5414 5413 5413 5414 5414 5415
5538 5536 5535 5533 5530 5528 5525 5521 5518 5514 5510 5506 5501 5496 5491 5486 5481 5476 5470 5465 5459 5453 5448 5443 5438 5433 5428 5424 5420 5418 5415 5413 5411 5409 5407 5406 5405 5404 5404 5404 5404 5404 5404 5405
5527 5526 5524 5522 5519 5517 5514 5510 5507 5503 5499 5494 5490 5485 5480 5475 5470 5464 5459 5454 5449 5443 5438 5433 5428 5423 5419 5415 5411 5408 5406 5403 5401 5399 5397 5396 5395 5394 5394 5394 5394 5394 5395 5395
5516 5514 5513 5511 5508 5505 5502 5499 5495 5491 5487 5483 5478 5473 5469 5464 5459 5454 5448 5443 5438 5433 5429 5424 5419 5415 5410 5406 5403 5399 5396 5394 5392 5390 5388 5387 5386 5385 5385 5385 5385 5385 5386 5386
5504 5503 5501 5499 5497 5494 5491 5487 5484 5480 5476 5471 5467 5462 5457 5452 5448 5443 5438 5434 5429 5424 5420 5415 5411 5406 5402 5398 5394 5391 5388 5385 5383 5381 5380 5378 5377 5377 5376 5376 5376 5376 5377 5377
5492 5491 5489 5487 5485 5482 5479 5476 5472 5468 5464 5460 5455 5451 5446 5441 5437 5432 5428 5424 5420 5415 5411 5406 5402 5398 5394 5390 5386 5383 5380 5377 5375 5373 5372 5370 5369 5369 5368 5368 5368 5368 5368 5368